STARLINK-32507 (62132 NORAD) Tracking and Keplerian Element Data

This shows tracking and keplerian element data for the satellite.

Feedback or suggestion? Click here.




ElementValue
Catalog62132
NameSTARLINK-32507
Epoch Orbit1129
Epoch Day32.99563161
Epoch Year2025
RAAN241.2047
Inclination43.0012
Eccentricity0.0001616
Argument of Perigee270.2236
Mean Anonmoly89.8436
Mean Motion15.4070456
Decay Rate6.5E-06
L11 62132U 24222U 25032.99563161 .00000650 00000+0 22828-4 0 9994
L22 62132 43.0012 241.2047 0001616 270.2236 89.8436 15.40704560 11295



Live tracking and technical data element details for STARLINK-32507 (NORAD 62132). STARLINK-32507 can be tracked NOW for your location showing map with azimuth and elevation plus other details from your city location.







IsCatalogInMostPopularTable: catalog: 62132, numindb: 20
Update: records affected: 1



GetName: 62132 STARLINK-32507

Hit Count: updated at: Sun, 18 May 2025 23:02:38 GMT